Location: Shenandoah County Park
(38.9356°N, 78.4524°W)
Time: 17:16:58
(UTC-04:00)

BlueWalker 3 - Pass Details

Date: 15 September 2024
Orbit: 473 x 485 km, 53.2° (Epoch: 05 October)

Event Time Altitude Azimuth Distance (km) Brightness Sun altitude
Rises 21:29:41 0° 289° (WNW) 2,545 6.9 -24.9°
Reaches altitude 10° 21:33:16 10° 253° (WSW) 1,664 5.1 -25.5°
Maximum altitude 21:34:24 11° 236° (SW) 1,593 4.8 -25.7°
Enters shadow 21:35:14 11° 223° (SW) 1,630 4.7 -25.9°
